Location: Home
(42.5358°N, 72.7383°W)
Time: 07:32:22
(UTC-05:00)

Envisat - Pass Details

Date: 01 November 2021
Orbit: 764 x 766 km, 98.2° (Epoch: 07 December)

Event Time Altitude Azimuth Distance (km) Brightness Sun altitude
Rises 05:21:29 0° 20° (NNE) 3,241 6.5 -23.2°
Reaches altitude 10° 05:23:57 10° 28° (NNE) 2,309 5.8 -22.7°
Maximum altitude 05:28:42 39° 97° (E) 1,138 4.4 -21.8°
Drops below altitude 10° 05:33:25 10° 166° (SSE) 2,293 5.6 -21.0°
Sets 05:35:51 0° 174° (S) 3,214 6.3 -20.5°
